Needles, CA

11:50 PM PDT on April 21, 2018 (GMT -0700)
Needles

Weather History for KEED - April, 2013

Change the Weather History Date:

Wednesday, April 24, 2013

  Actual Average Record
Temperature  
Mean Temperature 72 °F 75 °F  
Max Temperature 89 °F 88 °F 103 °F (1949)
Min Temperature 54 °F 61 °F 38 °F (1909)
Degree Days  
Heating Degree Days 0    
Cooling Degree Days 6    
Growing Degree Days 22 (Base 50)    
Moisture  
Dew Point 7 °F    
Average Humidity 8    
Maximum Humidity 12    
Minimum Humidity 5    
Precipitation  
Precipitation 0.00 in 0.01 in 0.19 in (1990)
Month to date precipitation 0.19  
Year to date precipitation 2.23  
Sea Level Pressure  
Sea Level Pressure 29.78 in    
Wind  
Wind Speed 7 mph (North)    
Max Wind Speed 17 mph    
Max Gust Speed 20 mph    
Visibility 10 miles    
Events      
T = Trace of Precipitation, MM = Missing Value Source: NWS Daily Summary

Daily Weather History Graph

Daily Weather History Graph

Search for Another Location

Airport or City:

Astronomy

Apr. 24, 2013 Rise Set
Actual Time 5:55 AM PDT 7:18 PM PDT
Civil Twilight 5:28 AM PDT 7:44 PM PDT
Nautical Twilight 4:57 AM PDT 8:16 PM PDT
Astronomical Twilight 4:24 AM PDT 8:49 PM PDT
Moon 6:27 PM PDT (4/24) 4:59 AM PDT (4/24)
Length of Visible Light 14h 15m
Length of Day
13h 22m
Waxing Gibbous, 98% of the Moon is Illuminated
Apr 24
Waxing Gibbous
Apr 25
Full
May 2
Last Quarter
May 9
New
May 17
First Quarter

Hourly Weather History & Observations

Time (PDT) Temp. Dew Point Humidity Pressure Visibility Wind Dir Wind Speed Gust Speed Precip Events Conditions
12:56 AM 60.1 °F 1.0 °F 9% 29.82 in 10.0 mi West 9.2 mph - N/A   Clear
1:56 AM 57.9 °F 1.9 °F 10% 29.80 in 10.0 mi West 5.8 mph - N/A   Clear
2:56 AM 55.9 °F 1.0 °F 11% 29.79 in 10.0 mi Calm Calm - N/A   Clear
3:56 AM 54.0 °F 1.9 °F 12% 29.80 in 10.0 mi Calm Calm - N/A   Clear
4:56 AM 54.0 °F 1.0 °F 12% 29.81 in 10.0 mi WSW 5.8 mph - N/A   Clear
5:56 AM 54.0 °F 1.9 °F 12% 29.82 in 10.0 mi Calm Calm - N/A   Clear
6:56 AM 59.0 °F 3.9 °F 11% 29.84 in 10.0 mi Calm Calm - N/A   Clear
7:56 AM 64.9 °F 3.9 °F 9% 29.85 in 10.0 mi Calm Calm - N/A   Clear
8:56 AM 72.0 °F 6.1 °F 8% 29.86 in 10.0 mi North 9.2 mph - N/A   Clear
9:56 AM 75.0 °F 9.0 °F 8% 29.87 in 10.0 mi North 12.7 mph - N/A   Clear
10:56 AM 81.0 °F 12.0 °F 7% 29.86 in 10.0 mi North 13.8 mph 19.6 mph N/A   Clear
11:56 AM 82.9 °F 8.1 °F 6% 29.84 in 10.0 mi NNE 17.3 mph - N/A   Clear
12:56 PM 84.9 °F 9.0 °F 6% 29.81 in 10.0 mi NE 12.7 mph - N/A   Clear
1:56 PM 88.0 °F 7.0 °F 5% 29.78 in 10.0 mi NNE 12.7 mph - N/A   Clear
2:56 PM 87.1 °F 9.0 °F 5% 29.76 in 10.0 mi NE 10.4 mph - N/A   Clear
3:56 PM 89.1 °F 10.9 °F 5% 29.73 in 10.0 mi NE 10.4 mph - N/A   Clear
4:56 PM 88.0 °F 12.9 °F 6% 29.71 in 10.0 mi NNE 5.8 mph - N/A   Clear
5:56 PM 89.1 °F 12.9 °F 6% 29.70 in 10.0 mi NNE 6.9 mph - N/A   Clear
6:56 PM 84.9 °F 12.9 °F 7% 29.69 in 10.0 mi NE 6.9 mph - N/A   Clear
7:56 PM 80.1 °F 12.0 °F 8% 29.70 in 10.0 mi North 5.8 mph - N/A   Clear
8:56 PM 75.9 °F 10.0 °F 8% 29.71 in 10.0 mi NNW 5.8 mph - N/A   Clear
9:56 PM 75.0 °F 8.1 °F 8% 29.71 in 10.0 mi WNW 6.9 mph - N/A   Clear
10:56 PM 73.9 °F 7.0 °F 8% 29.71 in 10.0 mi NNW 8.1 mph - N/A   Clear
11:56 PM 73.0 °F 6.1 °F 7% 29.70 in 10.0 mi NW 9.2 mph - N/A   Clear